YAOGAN 29

导读

YAOGAN 29(遥感二十九号)是中国于2015年11月26日北京时间08时(UTC时间约为0时,实际发射时间记载为27日5时24分)在太原卫星发射中心,由长征四号丙运载火箭发射升空的遥感卫星。该卫星由中国航天科技集团八院抓总研制,主要用于开展空间科学试验、国土资源普查、农作物估产以及防灾减灾等领域的应用任务,是中国遥感系列卫星的重要成员,为国民经济建设提供了可靠的遥感数据支撑。

Basic Information
目录编号:
41038
目录名称:
YAOGAN 29
国际标识:
2015-069A
轨道中心:
EARTH
卫星名称:
YAOGAN 29
卫星全名:
--
卫星状态:
在轨 (已飞行3942 天)
发射日期:
2015-11-26 UTC
国别 :
中国 (CN)
星等 :
--
This satellite is enrolled in the Space Conjunction Data Service (SCDS) and the current flight risk assessment level is: No High Risk
Orbit Information
数据来源 国际轨道数据 AOE轨道数据
星历时间 2026-09-11T15:59:14+0800
4小时前
查看轨道信息
2026-09-10T22:00:00+0800
22小时前
查看轨道信息
半长轴 6997.558km 6997.557km
偏心率 0.0002946 0.0002836
轨道倾角 98.000° 97.999°
近地点辐角 93.826° 91.711°
升交点赤经 283.087° 282.337°
平近点角 266.329° 229.253°
近地点 617.359km 617.435km
远地点 621.483km 621.405km
周期 97.091分钟 97.091分钟
每日圈数 14.83143 14.831433
Detailed Information
使用方式:
暂无
2D Orbit Map
3D Orbit Map
Orbit Altitude Analysis Chart
Orbit Inclination Analysis Chart
Orbit Comprehensive Analysis Chart
View Comprehensive Chart
Miss Distance Evolution Trend with All Objects
Collision Probability Evolution Trend with All Objects